Theta_e
334 335 337 344 347 349 350 351 353 357 360 362 364 364 363 364 365 360 359 359 355 357 354 354 356 354 353 357 361 357 362 359 357
333 334 335 338 347 350 352 352 354 357 360 362 363 362 365 363 362 361 359 362 359 359 361 361 358 359 356 355 353 353 360 357 361
331 336 336 338 340 345 353 353 356 357 361 361 363 362 364 363 361 361 361 362 359 360 359 364 362 360 361 360 357 356 357 360 365
327 336 338 339 341 344 346 354 356 357 358 359 362 362 362 362 361 361 361 360 361 362 361 363 360 362 359 361 360 361 360 361 362
329 332 338 341 342 345 346 351 352 355 356 356 360 362 365 362 362 359 358 358 361 363 362 364 361 359 361 361 359 361 358 356 361
333 334 336 339 342 345 348 349 352 353 356 357 359 362 361 361 361 361 357 357 360 361 363 363 363 360 359 359 359 359 358 356 354
329 336 340 336 339 343 348 353 354 358 356 357 360 360 360 360 360 358 358 361 360 360 363 362 361 359 358 359 361 360 359 358 352
326 330 331 338 337 348 353 357 360 361 358 360 359 362 359 362 362 363 366 363 361 363 362 359 356 358 355 356 356 357 359 356 351
323 330 332 336 345 352 354 355 364 361 362 360 361 363 360 365 365 367 365 366 362 362 357 355 354 355 351 351 353 345 349 353 351
331 331 333 337 341 350 357 356 363 362 363 368 367 372 369 364 364 363 363 365 361 358 357 357 353 354 354 350 355 341 342 343 347
335 337 337 341 340 353 355 354 357 360 361 371 369 369 366 365 364 361 362 362 359 354 359 357 353 355 351 350 348 335 336 340 345
334 334 335 339 336 340 360 362 364 363 364 367 366 365 364 366 363 361 361 358 355 355 357 356 354 353 350 348 346 330 331 336 343
339 336 341 344 344 343 351 358 363 363 363 364 358 364 365 367 364 362 359 357 357 358 358 358 356 351 349 347 345 327 327 332 340
343 346 342 348 350 350 358 360 362 361 364 362 365 368 368 367 365 363 362 360 359 358 357 357 354 351 352 354 350 336 324 324 339
342 346 347 345 351 358 366 365 365 362 362 368 367 369 367 366 365 361 359 360 360 357 355 354 353 352 352 352 351 333 323 323 323
338 342 349 350 350 355 363 365 368 364 368 369 367 367 365 364 364 361 360 359 357 355 356 352 351 352 350 350 351 343 325 322 322
331 338 345 347 352 351 359 365 368 367 368 370 368 366 365 364 362 359 361 358 359 354 353 352 348 349 348 349 349 345 335 328 328
329 334 339 346 350 355 356 365 366 365 366 369 366 365 363 363 361 356 359 357 355 353 354 350 350 348 351 349 349 349 332 328 333
330 332 336 341 347 353 357 357 363 365 365 366 364 362 361 359 358 357 355 356 354 331 334 323 324 324 340 351 337 322 318 315 314
327 334 334 334 340 347 354 355 358 363 365 365 364 361 358 358 351 353 351 352 352 350 336 319 313 317 315 318 332 313 313 310 311
Wind_Speed
9 4 8 25 23 19 20 20 18 18 19 17 16 14 13 11 10 7 8 8 7 7 7 8 9 11 8 7 5 4 4 5 5
14 9 3 5 23 21 21 20 18 19 18 17 16 16 13 12 11 9 7 7 9 6 7 5 9 10 10 8 7 6 6 6 5
10 12 7 5 6 18 20 19 17 17 17 17 17 16 15 12 13 12 10 8 8 9 8 6 5 10 10 9 8 6 5 6 1
4 14 10 5 8 8 14 16 17 14 14 16 16 15 15 15 13 13 11 9 9 8 9 8 7 6 6 8 7 7 4 4 4
10 8 10 8 7 9 11 15 15 16 15 18 16 15 12 14 15 14 14 12 9 10 9 8 8 7 6 7 8 7 6 5 3
7 5 3 8 10 9 11 12 14 17 18 15 16 14 15 13 13 12 13 13 12 10 9 9 9 8 7 8 8 8 6 5 6
7 7 6 3 8 12 12 10 14 11 15 16 13 15 16 14 12 12 12 8 12 11 9 9 8 8 10 10 10 9 7 6 6
7 8 4 7 3 6 12 10 11 10 14 12 14 11 14 13 12 9 8 8 10 9 9 9 11 10 10 11 8 8 9 7 6
6 11 11 2 4 3 10 11 10 11 10 13 13 11 12 10 8 5 6 5 8 8 9 9 11 10 9 7 8 14 12 10 8
13 11 7 7 7 8 5 11 10 10 9 7 8 7 8 12 11 10 8 6 7 9 8 8 11 10 9 7 5 14 12 8 6
10 10 9 8 6 5 9 10 12 10 10 6 8 9 9 11 11 10 8 7 8 9 7 9 10 10 12 10 6 9 11 8 6
12 10 11 12 14 7 9 8 10 11 8 8 8 10 11 11 12 10 9 8 8 8 8 8 9 6 8 8 7 9 10 8 6
16 13 12 9 13 6 12 9 11 10 10 10 11 12 11 10 11 10 10 10 9 7 8 7 7 8 12 14 9 12 12 9 6
17 17 12 9 8 11 4 12 12 13 10 10 9 9 10 10 10 10 9 9 7 8 7 6 6 9 11 10 11 10 13 12 5
18 18 19 15 10 4 7 8 9 12 12 10 9 11 11 11 10 9 9 10 8 8 8 8 9 9 9 7 7 9 14 14 12
16 16 16 16 14 2 8 8 7 10 9 11 11 12 12 12 11 10 9 11 11 9 10 8 8 8 8 8 8 7 14 16 14
13 14 13 15 16 13 3 6 8 9 10 11 13 13 13 11 12 12 10 10 10 10 10 9 9 9 8 8 8 8 8 9 8
11 12 12 13 13 14 11 6 8 10 10 12 13 13 12 12 11 12 11 12 11 12 12 12 11 11 10 10 11 12 14 13 11
7 9 10 9 13 12 14 12 6 9 10 14 14 13 12 11 11 12 11 11 10 14 14 16 17 13 11 10 14 15 20 22 18
6 7 9 12 7 11 12 11 12 7 10 9 14 14 13 12 14 13 14 12 12 11 8 6 12 18 12 9 9 16 22 21 21
Wind_Direction
128 196 218 181 179 178 179 177 192 175 173 180 188 197 199 196 215 208 219 206 191 196 217 210 219 196 203 209 212 239 239 257 252
159 140 232 208 176 176 175 177 193 178 166 178 188 195 194 193 207 217 221 206 190 184 219 236 166 168 186 195 209 217 239 230 253
148 140 165 190 208 172 167 177 184 178 170 182 189 201 190 194 195 202 233 204 194 197 208 236 189 184 184 185 194 200 229 255 166
45 145 145 172 177 179 173 165 165 180 181 196 191 199 190 186 189 198 207 228 197 203 205 193 217 201 192 187 196 199 213 199 207
50 9 130 151 164 182 177 168 183 176 191 212 190 198 203 189 184 193 192 205 192 198 208 197 188 204 196 183 194 199 189 199 180
120 68 99 161 159 180 184 187 191 186 191 207 191 194 191 187 195 195 197 194 183 197 203 203 186 196 198 195 195 191 174 165 161
93 141 131 303 186 176 178 192 182 188 184 195 202 189 189 194 193 206 206 195 182 188 199 196 202 202 202 194 185 176 163 164 152
116 135 101 139 270 164 168 179 173 180 180 185 191 195 191 190 190 201 195 193 176 185 186 196 203 199 208 197 184 174 162 158 162
24 58 41 77 181 200 181 177 166 178 179 182 193 187 192 158 158 200 196 200 169 177 195 201 203 199 208 192 210 149 157 161 177
38 25 40 357 334 177 229 175 167 169 183 171 174 167 160 153 169 181 193 193 171 194 198 194 200 195 187 175 212 146 151 155 162
24 8 342 319 286 186 174 184 175 179 179 184 171 156 163 155 167 182 187 189 183 199 196 199 200 193 189 186 152 158 161 160 152
3 339 343 348 316 192 151 162 153 159 176 186 167 168 174 163 172 182 181 182 199 189 194 199 202 177 144 155 165 177 167 165 171
356 358 354 347 334 340 143 154 142 163 181 177 179 180 181 170 175 181 184 180 192 194 194 189 178 165 159 190 163 182 181 190 185
356 342 352 347 351 327 178 154 157 170 184 184 181 181 182 174 177 183 186 181 180 176 185 182 172 163 170 182 165 183 191 204 228
359 352 351 348 338 24 95 137 155 171 182 171 169 180 185 181 180 186 191 181 168 180 181 175 184 174 169 180 173 173 202 207 220
356 353 345 339 336 108 136 156 193 178 172 164 177 187 184 183 181 193 187 184 173 183 179 186 193 183 182 188 184 185 194 206 219
351 351 350 343 335 345 184 159 161 180 175 182 184 191 187 183 187 194 194 189 182 186 188 196 188 199 192 187 198 184 182 204 211
356 346 350 344 336 331 335 176 181 187 193 185 190 195 193 193 190 191 204 202 191 198 200 197 197 201 198 192 206 194 180 182 196
358 336 338 349 341 336 337 338 228 202 211 186 194 200 200 200 197 190 207 198 210 208 216 196 206 207 201 203 204 175 170 177 189
331 320 337 324 342 332 324 338 317 240 219 213 207 203 206 207 207 205 193 200 197 215 212 197 221 206 182 208 203 182 178 183 185